Brooksville, FL

9:53 AM EDT on September 19, 2017 (GMT -0400)
Hernando County

Weather History for KBKV - November, 2013

Change the Weather History Date:

Monday, November 25, 2013

  Actual Average Record
Temperature  
Mean Temperature 64 °F -  
Max Temperature 73 °F 73 °F 84 °F (2001)
Min Temperature 55 °F 47 °F 28 °F (2012)
Degree Days  
Heating Degree Days 1    
Growing Degree Days 14 (Base 50)    
Moisture  
Dew Point 54 °F    
Average Humidity 69    
Maximum Humidity 81    
Minimum Humidity 53    
Precipitation  
Precipitation 0.00 in - - ()
Sea Level Pressure  
Sea Level Pressure 30.19 in    
Wind  
Wind Speed 10 mph (ENE)    
Max Wind Speed 18 mph    
Max Gust Speed 24 mph    
Visibility 10 miles    
Events      
Averages and records for this station are not official NWS values.
T = Trace of Precipitation, MM = Missing Value Source: NWS Daily Summary

Daily Weather History Graph

Daily Weather History Graph

Search for Another Location

Airport or City:

Trip Planner

Search our weather history database for the weather conditions in past years. The results will help you decide how hot, cold, wet, or windy it might be!

Date:

Astronomy

Nov. 25, 2013 Rise Set
Actual Time 7:00 AM EST 5:33 PM EST
Civil Twilight 6:35 AM EST 5:58 PM EST
Nautical Twilight 6:06 AM EST 6:27 PM EST
Astronomical Twilight 5:37 AM EST 6:55 PM EST
Moon No Moon Rise 12:35 PM EST (11/25)
Length of Visible Light 11h 23m
Length of Day
10h 32m
Waning Gibbous, 51% of the Moon is Illuminated
Nov 25
Waning Gibbous
Nov 25
Last Quarter
Dec 2
New
Dec 9
First Quarter
Dec 17
Full

Hourly Weather History & Observations

Time (EST) Temp. Dew Point Humidity Pressure Visibility Wind Dir Wind Speed Gust Speed Precip Events Conditions
12:53 AM 55.9 °F 48.0 °F 75% 30.24 in 10.0 mi NE 10.4 mph - N/A   Clear
1:53 AM 57.0 °F 48.9 °F 74% 30.24 in 10.0 mi NE 9.2 mph - N/A   Mostly Cloudy
2:53 AM 57.0 °F 48.9 °F 74% 30.23 in 10.0 mi NE 11.5 mph - N/A   Overcast
3:53 AM 57.9 °F 50.0 °F 75% 30.22 in 10.0 mi NE 9.2 mph - N/A   Overcast
4:53 AM 59.0 °F 51.1 °F 75% 30.21 in 10.0 mi NE 8.1 mph - N/A   Overcast
5:53 AM 59.0 °F 51.1 °F 75% 30.21 in 10.0 mi NE 8.1 mph - N/A   Overcast
6:53 AM 60.1 °F 51.1 °F 72% 30.23 in 10.0 mi NE 5.8 mph - N/A   Overcast
7:53 AM 60.1 °F 52.0 °F 75% 30.24 in 10.0 mi NE 8.1 mph - N/A   Overcast
8:53 AM 63.0 °F 54.0 °F 72% 30.25 in 10.0 mi NE 9.2 mph - N/A   Overcast
9:53 AM 68.0 °F 55.0 °F 63% 30.25 in 10.0 mi East 15.0 mph - N/A   Mostly Cloudy
10:53 AM 69.1 °F 54.0 °F 58% 30.26 in 10.0 mi East 12.7 mph - N/A   Overcast
11:53 AM 71.1 °F 54.0 °F 55% 30.22 in 10.0 mi East 16.1 mph 24.2 mph N/A   Overcast
12:53 PM 73.0 °F 55.0 °F 53% 30.19 in 10.0 mi East 15.0 mph 23.0 mph N/A   Mostly Cloudy
1:53 PM 72.0 °F 55.0 °F 55% 30.17 in 10.0 mi East 12.7 mph - N/A   Overcast
2:53 PM 73.0 °F 55.9 °F 55% 30.16 in 10.0 mi East 18.4 mph - N/A   Overcast
3:53 PM 72.0 °F 55.9 °F 57% 30.16 in 10.0 mi East 12.7 mph 20.7 mph N/A   Overcast
4:53 PM 69.1 °F 55.9 °F 63% 30.15 in 10.0 mi East 12.7 mph - N/A   Clear
5:53 PM 66.9 °F 57.0 °F 70% 30.15 in 10.0 mi East 9.2 mph - N/A   Clear
6:53 PM 66.0 °F 57.0 °F 73% 30.17 in 10.0 mi East 6.9 mph - N/A   Clear
7:53 PM 66.0 °F 57.0 °F 73% 30.16 in 10.0 mi East 10.4 mph - N/A   Clear
8:53 PM 64.9 °F 57.9 °F 78% 30.14 in 10.0 mi East 10.4 mph - N/A   Clear
9:53 PM 64.9 °F 59.0 °F 81% 30.13 in 10.0 mi East 9.2 mph - N/A   Clear
10:53 PM 66.0 °F 59.0 °F 78% 30.11 in 10.0 mi East 8.1 mph - N/A   Clear
11:53 PM 64.9 °F 59.0 °F 81% 30.10 in 10.0 mi East 8.1 mph - N/A   Clear